Waskish, MN

9:48 AM CDT on August 18, 2017 (GMT -0500)
Waskish Municipal

Weather History for KVWU - May, 2014

Change the Weather History Date:

Tuesday, May 13, 2014

  Actual Average (KBDE) Record (KBDE)
Temperature  
Mean Temperature 42 °F -  
Max Temperature 50 °F 65 °F 88 °F (1932)
Min Temperature 33 °F 39 °F 25 °F (1945)
Degree Days  
Heating Degree Days 24    
Moisture  
Dew Point 37 °F    
Average Humidity 82    
Maximum Humidity 100    
Minimum Humidity 62    
Precipitation  
Precipitation 0.04 in - - ()
Sea Level Pressure  
Sea Level Pressure 29.94 in    
Wind  
Wind Speed 13 mph (West)    
Max Wind Speed 18 mph    
Max Gust Speed 28 mph    
Visibility 9 miles    
Events Rain , Snow    
Averages and records for this station are not official NWS values.
T = Trace of Precipitation, MM = Missing Value Source: NWS Daily Summary

Daily Weather History Graph

Daily Weather History Graph

Search for Another Location

Airport or City:

Trip Planner

Search our weather history database for the weather conditions in past years. The results will help you decide how hot, cold, wet, or windy it might be!

Date:

Astronomy

May. 13, 2014 Rise Set
Actual Time 5:41 AM CDT 8:48 PM CDT
Civil Twilight 5:04 AM CDT 9:25 PM CDT
Nautical Twilight 4:16 AM CDT 10:13 PM CDT
Astronomical Twilight 3:17 AM CDT 11:13 PM CDT
Moon 7:45 PM CDT (5/13) 5:06 AM CDT (5/13)
Length of Visible Light 16h 20m
Length of Day
15h 06m
Waxing Gibbous, 99% of the Moon is Illuminated
May 13
Waxing Gibbous
May 14
Full
May 21
Last Quarter
May 28
New
Jun 5
First Quarter

Hourly Weather History & Observations

Time (CDT) Temp. Windchill Dew Point Humidity Pressure Visibility Wind Dir Wind Speed Gust Speed Precip Events Conditions
12:08 AM 39.2 °F 34.2 °F 37.4 °F 93% 29.82 in 10.0 mi NNW 6.9 mph - N/A Rain Light Rain
12:27 AM 39.2 °F 33.0 °F 37.4 °F 93% 29.82 in 7.0 mi NW 9.2 mph - 0.01 in Rain Light Rain
1:08 AM 37.4 °F 28.9 °F 35.6 °F 93% 29.82 in 10.0 mi NW 13.8 mph 19.6 mph N/A   Light Drizzle
1:27 AM 35.6 °F 26.2 °F 35.6 °F 100% 29.81 in 10.0 mi NW 15.0 mph 19.6 mph N/A   Overcast
1:48 AM 35.6 °F 28.0 °F 33.8 °F 93% 29.82 in 10.0 mi NW 10.4 mph 19.6 mph N/A Rain Light Rain
2:08 AM 35.6 °F 27.5 °F 33.8 °F 93% 29.79 in 4.0 mi NW 11.5 mph 17.3 mph 0.01 in Snow Light Snow
2:27 AM 33.8 °F 25.3 °F 33.8 °F 100% 29.79 in 7.0 mi NW 11.5 mph 17.3 mph 0.02 in Snow Light Snow
2:48 AM 35.6 °F 26.6 °F 33.8 °F 93% 29.80 in 10.0 mi NW 13.8 mph - 0.02 in Rain Rain
3:08 AM 35.6 °F 28.6 °F 33.8 °F 93% 29.80 in 10.0 mi WNW 9.2 mph 18.4 mph N/A Snow Light Snow
3:27 AM 35.6 °F 28.0 °F 33.8 °F 93% 29.82 in 10.0 mi WNW 10.4 mph 18.4 mph N/A Snow Light Snow
3:48 AM 35.6 °F 27.1 °F 33.8 °F 93% 29.82 in 7.0 mi WNW 12.7 mph 18.4 mph N/A Snow Light Snow
4:08 AM 35.6 °F 26.6 °F 33.8 °F 93% 29.82 in 5.0 mi WNW 13.8 mph 18.4 mph N/A Rain Light Rain
4:28 AM 35.6 °F 25.9 °F 33.8 °F 93% 29.83 in 5.0 mi WNW 16.1 mph 19.6 mph 0.01 in Rain Light Rain
4:48 AM 35.6 °F 27.1 °F 33.8 °F 93% 29.83 in 5.0 mi WNW 12.7 mph 19.6 mph 0.02 in Rain Rain
5:07 AM 35.6 °F 27.5 °F 35.6 °F 100% 29.84 in 10.0 mi WNW 11.5 mph 18.4 mph N/A Rain Light Rain
5:28 AM 35.6 °F 27.1 °F 35.6 °F 100% 29.84 in 10.0 mi WNW 12.7 mph 17.3 mph N/A   Drizzle
5:47 AM 37.4 °F 29.3 °F 35.6 °F 93% 29.84 in 10.0 mi West 12.7 mph - N/A Rain Rain
6:07 AM 37.4 °F 29.3 °F 35.6 °F 93% 29.85 in 10.0 mi West 12.7 mph 21.9 mph N/A   Light Drizzle
6:28 AM 37.4 °F 28.9 °F 35.6 °F 93% 29.85 in 10.0 mi West 13.8 mph 20.7 mph N/A   Light Drizzle
6:47 AM 37.4 °F 29.8 °F 37.4 °F 100% 29.86 in 5.0 mi West 11.5 mph 16.1 mph N/A   Overcast
7:08 AM 37.4 °F 28.9 °F 37.4 °F 100% 29.87 in 10.0 mi West 13.8 mph - N/A   Overcast
8:08 AM 39.2 °F 31.6 °F 37.4 °F 93% 29.89 in 10.0 mi West 12.7 mph 25.3 mph N/A   Overcast
8:28 AM 39.2 °F 30.8 °F 37.4 °F 93% 29.89 in 10.0 mi West 15.0 mph 20.7 mph N/A   Overcast
9:08 AM 39.2 °F 30.8 °F 37.4 °F 93% 29.91 in 10.0 mi West 15.0 mph 21.9 mph N/A   Overcast
9:47 AM 41.0 °F 33.5 °F 37.4 °F 87% 29.92 in 10.0 mi West 13.8 mph 21.9 mph N/A   Overcast
11:27 AM 42.8 °F 34.5 °F 39.2 °F 87% 29.94 in 7.0 mi West 18.4 mph 27.6 mph N/A Rain Light Rain
11:47 AM 44.6 °F 37.2 °F 39.2 °F 81% 29.95 in 10.0 mi West 17.3 mph 21.9 mph N/A   Mostly Cloudy
12:27 PM 46.4 °F 39.5 °F 39.2 °F 76% 29.96 in 10.0 mi WNW 17.3 mph 24.2 mph N/A   Scattered Clouds
12:47 PM 46.4 °F 39.8 °F 39.2 °F 76% 29.96 in 10.0 mi WNW 16.1 mph 20.7 mph N/A   Scattered Clouds
1:08 PM 48.2 °F - 37.4 °F 66% 29.97 in 10.0 mi West 10.4 mph 19.6 mph N/A   Mostly Cloudy
1:27 PM 48.2 °F - 39.2 °F 71% 29.97 in 10.0 mi WSW 16.1 mph 20.7 mph N/A   Mostly Cloudy
1:48 PM 46.4 °F 39.8 °F 41.0 °F 81% 29.98 in 10.0 mi WSW 16.1 mph 20.7 mph N/A   Mostly Cloudy
2:08 PM 44.6 °F 38.8 °F 39.2 °F 81% 29.99 in 7.0 mi West 11.5 mph 25.3 mph N/A Rain Light Rain
2:27 PM 46.4 °F 39.5 °F 41.0 °F 81% 30.00 in 10.0 mi West 17.3 mph 23.0 mph N/A   Mostly Cloudy
2:48 PM 46.4 °F 39.8 °F 41.0 °F 81% 30.00 in 10.0 mi West 16.1 mph 21.9 mph N/A   Overcast
3:08 PM 48.2 °F - 39.2 °F 71% 30.00 in 10.0 mi West 16.1 mph - N/A   Scattered Clouds
3:27 PM 50.0 °F - 37.4 °F 62% 30.01 in 10.0 mi WSW 17.3 mph 23.0 mph N/A   Scattered Clouds
3:48 PM 48.2 °F - 39.2 °F 71% 30.01 in 10.0 mi SW 12.7 mph 17.3 mph N/A   Mostly Cloudy
4:08 PM 46.4 °F 40.1 °F 37.4 °F 71% 30.01 in 10.0 mi WSW 15.0 mph 21.9 mph N/A   Overcast
4:27 PM 48.2 °F - 39.2 °F 71% 30.01 in 10.0 mi West 18.4 mph 24.2 mph N/A   Overcast
4:48 PM 46.4 °F 40.7 °F 35.6 °F 66% 30.02 in 10.0 mi West 12.7 mph 21.9 mph N/A   Mostly Cloudy
5:08 PM 48.2 °F - 35.6 °F 62% 30.02 in 10.0 mi West 16.1 mph 21.9 mph N/A   Scattered Clouds
5:28 PM 46.4 °F 39.8 °F 37.4 °F 71% 30.02 in 10.0 mi WSW 16.1 mph 21.9 mph N/A   Mostly Cloudy
5:48 PM 46.4 °F 41.1 °F 37.4 °F 71% 30.02 in 10.0 mi WSW 11.5 mph 20.7 mph N/A   Overcast
6:07 PM 48.2 °F - 35.6 °F 62% 30.02 in 10.0 mi West 17.3 mph 23.0 mph N/A   Mostly Cloudy
6:28 PM 48.2 °F - 37.4 °F 66% 30.03 in 10.0 mi WSW 13.8 mph 24.2 mph N/A   Mostly Cloudy
7:07 PM 46.4 °F 41.5 °F 37.4 °F 71% 30.03 in 10.0 mi West 10.4 mph - N/A   Overcast
7:28 PM 46.4 °F 40.4 °F 35.6 °F 66% 30.03 in 10.0 mi WNW 13.8 mph 19.6 mph N/A   Overcast
8:07 PM 46.4 °F 42.4 °F 35.6 °F 66% 30.04 in 10.0 mi WNW 8.1 mph - N/A   Mostly Cloudy
8:28 PM 46.4 °F 40.1 °F 33.8 °F 62% 30.04 in 10.0 mi West 15.0 mph 24.2 mph N/A   Mostly Cloudy
8:47 PM 46.4 °F 40.7 °F 33.8 °F 62% 30.04 in 10.0 mi West 12.7 mph 19.6 mph N/A   Mostly Cloudy
9:07 PM 44.6 °F 37.8 °F 35.6 °F 71% 30.05 in 10.0 mi WSW 15.0 mph 20.7 mph N/A   Mostly Cloudy
9:48 PM 42.8 °F 35.1 °F 37.4 °F 81% 30.06 in - WSW 16.1 mph - N/A   Unknown
10:08 PM 42.8 °F 34.5 °F 37.4 °F 81% 30.06 in 10.0 mi West 18.4 mph 25.3 mph N/A   Scattered Clouds
10:27 PM 42.8 °F 34.8 °F 37.4 °F 81% 30.06 in 10.0 mi WSW 17.3 mph 25.3 mph N/A   Scattered Clouds
10:48 PM 42.8 °F 34.8 °F 37.4 °F 81% 30.07 in 10.0 mi WSW 17.3 mph 21.9 mph N/A   Clear
11:07 PM 42.8 °F 35.4 °F 37.4 °F 81% 30.07 in 10.0 mi West 15.0 mph 21.9 mph N/A   Clear
11:27 PM 41.0 °F 33.9 °F 35.6 °F 81% 30.08 in 10.0 mi West 12.7 mph 17.3 mph N/A   Clear
11:48 PM 41.0 °F 33.9 °F 35.6 °F 81% 30.08 in 10.0 mi West 12.7 mph - N/A   Clear